GFSSE_con_lsi_195.txt.gz
Lid_Strength_Index
1 0 -1 -2 -2 -2 -2 -2 -2 -1 -2 -1 -1 -2 -1 -2 -2 -2 -2 -2 -2 -2 -2 -2 -2 -2 -2 -2 -2 -2 -2 -2 -2 -2 -2 -1 -1 -1 -1 -1 -1 -0 -1
0 -0 -1 -2 -2 -2 -2 -2 -2 -1 -2 -2 -2 -1 -1 -1 -2 -2 -2 -2 -2 -2 -2 -2 -2 -2 -2 -2 -2 -2 -2 -1 -1 -1 -1 -1 -1 -1 -1 -1 -1 -1 -1
0 -0 -1 -1 -2 -1 -2 -2 -2 -1 -1 -1 -1 -2 -2 -1 -1 -1 -2 -2 -2 -2 -2 -2 -2 -2 -2 -1 -1 -1 -1 -1 -1 -1 -1 1 0 -1 -1 -1 -1 -1 -1
-0 -0 -0 -1 -2 -1 -1 -2 -1 -1 -1 -1 -1 -1 -1 -1 -1 -1 -1 -1 -1 -1 -1 -1 -1 -1 -1 -1 -1 -1 -1 -1 -1 -1 1 1 0 -1 -1 -1 -1 -1 -1
0 -0 -0 -1 -1 -1 -1 -1 -1 -2 -2 -1 -1 -1 -1 -1 -1 -1 -1 -1 -1 -1 -1 -1 -1 -1 -1 -1 -1 -1 -1 -2 -1 1 3 2 1 -1 -1 -1 -1 -1 -0
0 0 -0 -1 -1 -1 -1 -1 -2 -2 -1 -1 -1 -1 -1 -1 -1 -1 -1 -1 -1 -1 -1 -1 -1 -1 -1 -1 -1 -1 -1 -2 -1 2 3 2 0 -1 -1 -1 -0 -0 -0
0 0 -0 -1 -1 -2 -2 -1 -1 -1 -1 -1 -1 -1 -1 -1 -1 -1 -1 -1 -1 -1 -1 -1 -1 -1 -1 -1 -1 -1 -1 -2 1 3 4 4 2 -2 -2 -2 -1 -1 -1
0 0 0 1 -0 -1 -1 -1 -2 -2 -1 -1 -1 -1 -1 -1 -1 -1 -1 -1 -1 -1 -1 -1 -1 -1 -1 -1 -1 -1 -2 -1 1 3 3 4 2 -2 -2 -2 -2 -2 -2
0 0 1 0 1 1 -0 -0 -1 -1 -2 -2 -2 -2 -2 -2 -2 -2 -2 -1 -1 -1 -1 -1 -1 -1 -1 -1 -1 -2 -1 -1 1 2 2 2 1 -1 -2 -2 -2 -2 -2
0 0 1 1 1 1 1 1 1 -0 -1 -1 -1 -1 -1 -1 -1 -1 -1 -2 -2 -2 -1 -2 -2 -2 -1 -1 -2 -1 -1 -1 1 2 2 2 -1 -2 -2 -2 -2 -2 -2
1 0 0 0 1 1 0 1 2 1 1 0 0 1 1 0 0 0 0 -1 -2 -2 -2 -2 -2 -2 -1 -1 -1 -1 -0 1 1 2 2 0 -1 -2 -2 -2 -2 -2 -2
3 1 0 0 0 0 -1 1 1 1 1 1 0 1 1 1 1 -0 1 1 0 -0 -1 -2 -2 -1 0 1 1 0 1 1 1 2 2 0 -1 -2 -2 -2 -2 -2 -2
2 1 0 0 0 0 0 1 1 1 1 1 1 1 1 0 1 0 1 1 2 2 2 1 1 1 1 1 1 1 1 2 2 2 1 0 -1 -2 -2 -2 -2 -2 -2
2 2 1 1 1 1 1 2 2 1 1 1 1 1 1 1 1 2 2 2 2 2 2 2 2 2 2 2 1 2 2 2 2 2 2 2 0 -2 -2 -2 -2 -2 -2
3 2 2 2 2 2 2 2 3 3 2 1 1 1 1 2 2 2 2 2 2 2 2 2 2 2 2 2 2 2 2 2 2 1 1 2 1 -1 -2 -2 -2 -2 -2
3 3 2 2 2 2 2 3 2 2 2 2 2 2 2 2 2 2 2 2 2 2 2 2 2 2 2 3 2 2 2 1 1 1 1 1 1 -1 -2 -2 -2 -2 -2
3 3 3 2 2 2 2 2 2 2 2 2 2 2 2 2 2 2 2 2 2 2 2 2 2 3 3 3 3 2 1 1 1 1 1 2 1 1 0 -1 -2 -2 -2
3 3 3 2 2 2 2 2 2 2 2 2 2 2 2 2 2 2 3 3 2 2 2 3 3 3 3 2 1 1 1 1 1 0 1 1 1 -0 0 0 -1 -2 -2
3 3 3 3 2 2 2 2 2 2 2 2 2 2 2 2 2 2 3 2 2 2 2 2 2 2 2 2 1 1 2 1 1 1 1 1 1 1 1 1 2 1 0
4 4 3 3 3 3 2 3 3 3 2 2 2 2 2 2 1 1 1 2 1 1 1 2 3 3 3 3 3 3 3 2 2 2 2 1 2 2 2 3 2 3 2
8 8 7 4 7 3 3 4 4 4 4 3 4 3 3 3 3 2 1 2 3 3 3 3 4 4 4 4 5 5 4 3 4 4 4 4 4 4 4 4 4 4 4
9 9 8 8 8 7 7 6 5 5 6 6 5 4 4 4 4 3 2 3 3 3 4 4 5 5 5 5 5 4 6 5 4 5 6 5 6 6 5 5 5 5 5
10 9 8 8 8 8 7 6 6 6 6 6 6 5 5 5 4 4 5 5 5 5 6 5 5 4 5 4 4 4 7 7 5 5 6 6 7 7 7 6 5 5 5
10 10 9 9 9 9 9 8 8 8 8 8 7 7 6 6 5 5 5 6 6 6 6 6 5 5 4 5 4 4 3 3 5 7 5 6 8 7 7 7 7 7 6
10 10 10 10 10 10 10 9 9 10 10 9 9 9 9 8 7 7 7 7 7 7 8 8 7 7 6 5 5 4 4 3 3 5 7 5 5 6 7 8 8 8 7
11 10 11 11 11 11 11 11 11 12 11 11 11 11 11 10 9 9 9 9 9 9 9 8 8 8 8 8 7 7 6 5 5 5 5 5 6 5 7 7 8 7 7

GFSSE_con_lsi_198.txt.gz
Lid_Strength_Index
1 0 -1 -2 -2 -2 -2 -2 -1 -1 -1 -1 -2 -2 -2 -2 -2 -2 -2 -2 -2 -2 -2 -2 -2 -2 -2 -2 -2 -2 -2 -2 -2 -2 -2 -2 -2 -2 -2 -1 -1 -0 -2
0 0 -1 -2 -2 -2 -2 -2 -1 -2 -1 -1 -1 -1 -2 -2 -2 -2 -2 -2 -2 -2 -2 -2 -2 -2 -2 -2 -2 -2 -2 -2 -2 -1 -1 -1 -2 -2 -2 -1 -1 -1 -1
0 -0 -0 -2 -2 -2 -2 -2 -1 -2 -1 -2 -2 -1 -1 -1 -1 -1 -1 -2 -2 -2 -2 -2 -2 -2 -2 -2 -1 -1 -2 -2 -2 -2 -1 1 1 -1 -1 -1 -1 -1 -1
-0 -0 -0 -1 -1 -2 -2 -1 -2 -1 -1 -1 -1 -1 -2 -1 -1 -1 -1 -1 -1 -1 -1 -1 -2 -2 -1 -1 -1 -1 -2 -1 -1 -0 2 1 1 -2 -1 -1 -1 -1 -1
0 -0 -0 -1 -1 -2 -2 -1 -1 -1 -1 -1 -1 -2 -1 -1 -1 -1 -1 -1 -1 -1 -1 -1 -1 -1 -1 -1 -1 -1 -1 -1 -1 1 3 3 2 -1 -1 -1 -1 -1 -1
0 0 -0 -1 -2 -1 -1 -1 -2 -2 -1 -1 -1 -1 -1 -1 -1 -1 -1 -1 -1 -1 -1 -1 -1 -1 -1 -1 -1 -1 -1 -1 -0 3 3 3 2 -2 -2 -1 -1 -1 -1
1 0 -0 -1 -1 -2 -2 -1 -1 -1 -1 -1 -1 -1 -1 -1 -1 -1 -1 -1 -1 -1 -1 -1 -1 -1 -1 -1 -1 -1 -1 -2 1 3 4 4 4 -1 -2 -2 -2 -2 -2
1 0 0 1 -0 -1 -1 -2 -2 -2 -1 -1 -1 -1 -1 -1 -1 -1 -1 -1 -1 -1 -1 -1 -1 -1 -1 -1 -1 -1 -2 -1 1 3 3 3 1 -1 -2 -2 -2 -2 -2
1 -0 0 0 1 1 -0 -1 -1 -1 -2 -2 -2 -2 -2 -2 -2 -2 -2 -1 -1 -1 -1 -1 -2 -2 -2 -2 -2 -2 -2 -1 1 2 2 2 0 -2 -2 -2 -2 -2 -2
1 -0 0 1 0 0 1 1 1 -0 -1 -1 -1 -1 -1 -1 -1 -1 -1 -1 -1 -2 -2 -2 -2 -2 -2 -2 -2 -1 -1 -1 1 2 2 2 -1 -2 -2 -2 -2 -2 -2
2 1 1 1 1 1 1 1 2 1 1 0 0 1 1 1 0 0 0 -1 -1 -2 -2 -2 -2 -2 -1 -1 -1 -1 -0 1 2 2 2 1 -1 -2 -2 -2 -2 -2 -2
3 2 1 1 1 1 -0 1 0 0 0 1 1 1 1 1 1 0 1 1 -0 0 -1 -1 -2 -1 0 1 1 1 1 2 2 2 2 0 -1 -2 -2 -2 -2 -2 -2
3 2 1 0 1 1 1 1 1 1 1 1 2 1 1 1 1 1 1 1 2 2 2 1 1 1 1 1 2 2 2 2 2 2 2 0 -1 -2 -2 -2 -2 -2 -2
3 2 0 0 0 1 1 1 1 1 1 1 1 1 1 2 2 1 2 2 2 2 2 2 2 2 2 2 2 2 2 2 2 2 2 2 -0 -2 -2 -2 -2 -2 -2
3 2 1 1 1 1 2 2 3 3 2 2 2 1 1 2 2 2 2 2 2 2 2 2 2 2 2 2 2 2 2 2 2 1 1 2 1 -1 -2 -2 -2 -2 -2
2 2 2 2 2 2 2 2 3 3 3 3 2 2 2 2 3 3 3 3 3 3 3 3 3 3 3 3 3 3 2 1 1 1 0 0 0 0 -1 -2 -2 -2 -2
3 2 2 2 2 2 2 2 2 2 2 2 2 2 2 2 3 3 3 3 3 3 3 3 3 3 4 3 3 2 2 1 1 1 1 1 1 1 0 -1 -2 -2 -2
3 3 2 2 2 2 3 2 2 2 2 2 2 2 2 2 2 3 3 3 3 3 2 2 2 2 2 1 1 0 2 1 1 1 1 1 1 1 0 -1 -1 -1 -1
3 3 3 3 3 3 3 3 3 2 2 2 2 2 2 2 2 3 2 2 2 2 2 2 2 2 2 2 2 3 3 3 3 3 3 2 2 2 2 1 1 2 0
4 4 4 3 3 3 3 3 3 3 3 3 3 3 2 2 2 1 1 1 1 1 2 2 2 3 2 4 4 4 4 4 4 4 4 3 3 3 3 4 3 3 2
8 7 7 5 7 4 4 4 4 4 4 5 6 5 5 4 3 4 3 2 2 2 4 4 4 5 6 5 6 6 5 5 5 5 4 5 5 5 5 5 5 4 3
10 9 9 8 8 8 7 7 5 6 7 6 5 5 5 5 5 4 5 5 5 6 6 6 6 5 5 5 6 7 8 6 5 5 5 5 5 6 6 5 5 5 4
11 10 10 10 10 9 8 7 7 6 7 7 7 7 6 6 6 6 6 6 7 7 7 7 6 5 6 5 5 5 8 9 6 6 5 6 6 6 6 6 5 5 5
11 11 10 10 10 9 9 8 8 9 9 9 9 9 8 7 8 7 7 7 8 8 8 8 7 7 6 6 5 4 5 5 7 8 6 5 6 6 6 6 6 5 5
11 11 11 11 11 11 11 10 10 11 10 11 11 11 11 10 10 10 10 10 9 9 10 9 9 9 8 8 8 8 7 6 6 7 9 8 6 5 5 5 6 6 6
11 11 11 11 12 11 12 12 12 12 12 12 13 13 12 12 11 12 11 11 11 11 11 11 10 10 10 10 9 9 8 8 8 7 8 8 9 8 7 5 6 6 6

GFSSE_con_lsi_201.txt.gz
Lid_Strength_Index
0 -1 -1 -2 -2 -2 -2 -1 -1 -1 -2 -2 -2 -2 -2 -2 -2 -2 -2 -2 -2 -2 -2 -2 -2 -2 -2 -2 -2 -2 -2 -2 -2 -2 -2 -2 -2 -2 -2 -2 -2 -1 -2
-0 -1 -1 -2 -2 -2 -2 -1 -1 -1 -1 -2 -2 -2 -2 -2 -2 -2 -2 -2 -2 -2 -2 -2 -2 -2 -2 -2 -2 -2 -2 -2 -2 -2 -1 -2 -2 -2 -2 -1 -1 -1 -2
-0 -1 -1 -2 -2 -2 -2 -1 -2 -2 -2 -2 -2 -1 -2 -2 -2 -2 -2 -2 -2 -2 -2 -2 -2 -2 -2 -2 -2 -2 -2 -2 -2 -1 -1 -1 -1 -2 -1 -1 -1 -1 -1
-1 -1 -1 -2 -2 -2 -2 -1 -2 -2 -2 -2 -2 -2 -2 -1 -1 -2 -1 -1 -2 -2 -2 -2 -2 -2 -2 -1 -1 -2 -2 -2 -1 -0 0 -0 -0 -1 -2 -1 -1 -1 -1
-1 -1 -1 -1 -2 -2 -2 -2 -2 -1 -2 -2 -2 -2 -2 -2 -2 -1 -1 -1 -1 -2 -1 -1 -2 -1 -1 -1 -2 -2 -2 -1 -1 1 0 0 -1 -1 -2 -1 -1 -1 -1
-0 -1 -1 -1 -2 -2 -1 -1 -1 -2 -2 -1 -1 -1 -1 -1 -2 -1 -1 -1 -1 -1 -1 -1 -1 -1 -1 -2 -2 -2 -2 -2 -0 1 1 1 1 0 -2 -2 -2 -1 -2
-0 -1 -1 -1 -1 -2 -2 -2 -2 -2 -2 -1 -1 -1 -1 -1 -1 -1 -1 -1 -1 -1 -1 -1 -1 -1 -1 -2 -2 -1 -1 -1 -0 0 1 1 1 -1 -2 -2 -2 -2 -2
-0 -1 -1 0 -1 -1 -2 -2 -2 -2 -1 -2 -1 -1 -1 -1 -1 -1 -1 -1 -1 -1 -1 -1 -1 -2 -2 -2 -2 -2 -2 -1 -1 -0 -0 -0 -0 -2 -2 -2 -2 -2 -2
0 -0 -1 -1 -1 0 -0 -1 -1 -2 -2 -2 -2 -2 -2 -2 -2 -1 -2 -1 -1 -1 -1 -1 -1 -1 -1 -2 -2 -2 -1 -1 -1 -1 -1 -1 -0 -2 -2 -2 -2 -2 -2
1 0 0 -0 -1 -1 -1 1 0 -0 -1 -1 -1 -1 -1 -1 -1 -1 -1 -1 -2 -2 -2 -2 -2 -2 -2 -1 -2 -1 -1 -1 -1 -1 -1 -1 -1 -2 -2 -2 -2 -2 -2
2 1 -0 -1 -1 -1 -1 0 2 2 0 0 -0 0 0 -1 -1 -1 0 -1 -1 -1 -1 -1 -1 -2 -1 -1 -1 -1 -0 -1 -1 -1 -1 -0 -1 -2 -2 -2 -2 -2 -2
2 1 0 -0 -1 -1 -1 -1 -0 -0 -1 -0 -1 -1 -1 -1 -1 -1 0 1 -0 -0 -1 -1 -1 -1 -0 -1 -1 -0 -1 -1 -0 -0 -1 -0 -1 -2 -2 -2 -2 -2 -2
1 1 1 0 -0 -0 -0 -1 -0 0 -0 0 0 -1 -1 -1 -1 -1 -1 -1 -1 1 -1 -1 -1 -1 -1 -1 -1 -0 -0 -0 -0 -0 -0 0 -1 -2 -2 -2 -2 -2 -2
2 1 0 -0 -0 -1 -1 -1 -1 -1 -1 -1 -1 -1 -1 -1 -1 -1 -1 -0 -0 -1 -0 -0 -0 -0 -0 -0 0 0 -0 -0 -0 -1 -0 2 -0 -2 -2 -2 -2 -2 -2
2 1 0 -0 -0 -1 -1 -1 -1 -0 -0 -0 0 -0 -1 -0 -0 0 0 0 0 0 1 1 1 1 1 0 0 0 0 -1 -1 -1 -1 1 0 -1 -2 -2 -2 -2 -2
2 1 0 -0 -0 -0 0 0 1 1 1 1 1 1 1 1 1 1 1 1 1 1 1 1 1 1 1 1 0 -0 -0 -1 -1 -1 -1 -1 1 -0 -1 -2 -2 -2 -2
2 1 1 1 1 1 1 1 0 1 1 1 1 0 1 1 1 1 1 1 1 1 1 1 1 1 1 1 1 0 -1 -1 -0 0 0 0 0 1 0 -1 -1 -2 -2
1 1 1 1 1 1 1 1 1 1 1 1 1 1 1 1 1 1 1 1 0 1 1 1 1 1 1 0 0 -0 1 1 2 2 1 1 0 0 0 0 -0 -0 -1
2 2 2 2 1 1 1 1 1 1 1 1 1 1 1 1 1 1 0 -0 -0 -0 -0 0 0 0 1 2 2 2 2 2 2 2 2 1 1 1 1 1 2 2 1
3 3 3 2 2 2 2 2 1 1 2 3 4 4 4 3 3 1 1 1 1 2 2 2 2 2 3 3 4 4 3 3 2 2 2 2 2 2 2 2 1 1 2
6 5 4 5 5 3 2 2 2 3 4 5 5 5 4 3 3 3 3 4 4 4 4 4 4 4 4 4 4 4 3 2 2 2 2 2 2 3 3 2 2 1 1
9 8 8 8 7 6 5 5 4 5 6 6 5 5 5 5 4 5 5 5 5 5 5 5 5 5 5 4 6 5 6 5 3 3 2 3 2 2 2 2 2 2 1
10 10 9 9 9 8 7 6 5 5 6 6 7 7 8 8 7 6 6 6 7 6 7 6 6 5 6 4 5 5 7 8 6 4 3 3 3 2 2 2 2 2 2
11 10 10 10 10 9 8 6 7 7 8 8 9 9 9 10 10 9 8 8 8 8 8 8 7 7 6 7 6 5 6 6 8 9 5 4 4 4 3 3 2 2 2
11 11 11 11 11 10 10 9 9 10 10 10 11 11 10 11 11 11 10 10 10 10 10 10 9 9 8 8 8 8 8 7 5 8 10 8 6 5 5 4 3 2 2
11 11 11 11 12 11 11 11 11 11 12 12 12 12 12 12 12 12 11 11 11 11 11 11 10 10 10 10 9 9 9 9 9 9 9 9 9 7 5 5 3 2 2

GFSSE_con_lsi_207.txt.gz
Lid_Strength_Index
0 -1 -1 -2 -2 -1 -1 -1 -1 -1 -1 -1 -1 -2 -2 -2 -2 -2 -2 -2 -2 -2 -2 -2 -2 -2 -2 -2 -2 -2 -2 -2 -2 -1 -1 -1 -2 -2 -2 -1 -2 -1 -2
-0 -1 -1 -2 -2 -1 -1 -1 -1 -1 -1 -1 -1 -1 -2 -2 -2 -2 -2 -2 -2 -2 -2 -2 -2 -2 -2 -2 -1 -1 -1 -2 -1 -1 -1 -1 -2 -2 -2 -1 -1 -1 -2
-0 -1 -1 -2 -2 -1 -1 -1 -1 -1 -1 -1 -2 -2 -1 -2 -2 -2 -2 -2 -2 -2 -2 -2 -2 -2 -2 -2 -1 -1 -1 -1 -1 -1 -1 -1 -1 -2 -1 -1 -1 -1 -1
-1 -1 -1 -1 -2 -1 -1 -1 -1 -1 -1 -1 -1 -1 -1 -1 -1 -1 -1 -1 -2 -2 -1 -1 -1 -1 -1 -1 -1 -1 -1 -1 -1 -1 0 -0 -0 -2 -1 -2 -1 -1 -1
-1 -1 -1 -1 -2 -1 -1 -1 -1 -1 -1 -1 -1 -1 -2 -1 -1 -1 -1 -1 -1 -1 -1 -1 -1 -1 -1 -1 -1 -1 -1 -1 -1 -1 0 0 0 -1 -1 -1 -1 -2 -1
-1 -0 -1 -1 -2 -1 -1 -1 -1 -1 -1 -1 -1 -1 -2 -2 -2 -1 -1 -1 -1 -1 -1 -1 -1 -1 -1 -1 -1 -1 -1 -1 -1 -1 -1 -1 -1 -1 -2 -2 -2 -2 -2
-0 -1 -1 -1 -1 -1 -1 -1 -1 -1 -1 -1 -1 -1 -1 -1 -1 -1 -1 -1 -1 -1 -1 -1 -1 -1 -1 -1 -1 -1 -1 -1 -1 -1 -1 -1 -1 -1 -2 -2 -2 -2 -2
-0 -1 -1 0 -1 -1 -1 -2 -2 -1 -1 -1 -1 -1 -1 -1 -1 -1 -1 -1 -1 -1 -1 -1 -1 -1 -1 -1 -1 -1 -1 -1 -1 -1 -1 -1 -1 -1 -2 -2 -2 -2 -2
-1 -1 -1 -1 -1 -0 -1 -1 -1 -2 -2 -1 -1 -1 -1 -1 -1 -1 -1 -1 -1 -1 -1 -1 -1 -1 -1 -1 -1 -1 -1 -1 -1 -1 -1 -1 -1 -1 -2 -2 -2 -2 -2
-0 -1 -1 -1 -1 -1 -1 0 -0 -1 -1 -2 -2 -1 -1 -1 -2 -1 -1 -1 -1 -1 -1 -1 -1 -1 -1 -1 -1 -1 -1 -0 -0 -1 -1 -1 -2 -1 -2 -2 -2 -2 -2
1 0 -1 -0 -1 -1 -1 -0 0 0 -0 -0 -1 -0 -1 -1 -1 -1 -0 -1 -1 -1 -1 -1 -1 -1 -1 -1 -1 -1 0 -1 -1 -1 -1 -1 -1 -2 -2 -2 -2 -2 -2
2 1 -0 -0 -1 -1 -1 -1 -1 -1 -1 -1 -1 -1 -1 -1 -1 -1 1 -0 -1 -1 -1 -2 -2 -1 0 -1 -1 -0 -1 -1 -1 -1 -1 -1 -1 -2 -2 -2 -2 -2 -2
1 1 0 -0 -1 -1 -1 -1 -1 -1 -1 -1 -1 -1 -1 -1 -1 -1 -1 -1 -1 2 -1 -1 -1 -1 -1 -1 -1 -1 -1 -1 -1 -1 -1 -0 -1 -1 -2 -2 -2 -2 -2
1 1 0 -0 -0 -1 -1 -1 -1 -1 -1 -1 -1 -1 -1 -1 -1 -1 -1 -1 -1 -1 -1 -1 -1 -1 -1 -1 -1 -1 -1 -1 -1 -1 -1 1 -1 -1 -1 -2 -2 -2 -2
1 1 0 -0 -0 -1 -1 -1 -1 -1 -1 -1 -1 -1 -1 -1 -1 -1 -1 -1 -1 -1 -1 -1 -1 -1 -1 -1 -1 -1 -1 -1 -1 -1 -1 2 0 -0 -1 -1 -1 -2 -2
1 1 0 -0 -1 -1 -0 -1 -1 -1 -1 -1 -1 -1 -1 -1 -1 -1 -1 -0 -1 -1 -1 -1 -0 -0 -0 -1 -0 -1 -1 -1 -1 -0 1 1 1 0 -0 -1 -2 -2 -2
1 0 0 -0 -1 -0 -0 -1 -1 -1 -1 -1 -1 -1 -1 -1 -1 -1 -0 -0 -1 -1 -1 -1 -1 -1 -0 -0 -0 0 1 1 1 2 1 1 0 1 -0 -0 -0 -1 -0
1 1 0 -0 -0 -0 -0 -0 -1 -1 -1 -1 -1 -1 -1 -1 -1 -1 -0 -0 -1 -1 -1 0 1 1 1 2 2 2 2 1 1 1 1 1 1 1 0 1 1 1 1
1 1 1 0 0 -0 -0 -0 -0 -1 -1 -1 -1 -0 0 1 0 -1 -1 0 0 0 1 2 2 2 3 3 4 3 2 2 2 2 1 2 1 1 1 2 1 1 1
1 0 0 0 0 -0 -0 -0 -0 -0 0 1 2 2 2 2 1 0 1 2 2 2 3 3 3 3 3 4 5 4 4 2 1 1 2 4 2 2 2 2 2 3 2
1 1 1 1 0 0 1 1 1 1 2 3 3 3 2 2 2 2 2 3 3 4 5 5 5 4 4 4 5 6 4 3 3 3 5 3 3 3 3 4 4 4 3
2 1 1 1 1 0 0 0 0 2 3 4 4 4 4 4 4 5 5 6 6 6 6 6 6 7 6 5 8 6 8 7 5 6 4 5 3 4 5 5 4 4 4
2 2 3 3 2 1 1 1 2 4 4 5 5 6 7 7 6 6 7 7 7 7 8 8 8 8 8 7 6 7 10 11 9 6 6 5 5 5 5 5 4 5 4
5 5 5 5 5 3 2 2 3 4 5 5 7 8 8 8 9 8 8 8 8 8 9 8 9 8 9 10 8 9 8 8 11 10 7 7 6 6 6 5 5 4 3
7 7 7 6 6 5 4 3 4 6 6 7 8 9 9 10 10 10 10 10 10 9 10 10 10 10 10 10 10 9 9 9 8 11 12 10 8 7 5 6 4 4 3
7 7 7 8 8 7 6 6 6 7 8 8 9 10 10 11 11 11 11 10 11 11 11 11 10 11 11 10 10 10 10 11 11 11 11 11 11 9 8 5 4 4 3